TimeAKST,TemperatureF,Dew PointF,Humidity,Sea Level PressureIn,VisibilityMPH,Wind Direction,Wind SpeedMPH,Gust SpeedMPH,PrecipitationIn,Events,Conditions,WindDirDegrees,DateUTC
12:53 AM,-18.0,-23.1,78,30.25,10.0,Calm,Calm,-,N/A,,Scattered Clouds,0,2013-01-18 09:53:00
1:53 AM,-17.0,-22.0,78,30.26,10.0,Calm,Calm,-,N/A,,Mostly Cloudy,0,2013-01-18 10:53:00
3:53 AM,-20.9,-26.0,77,30.30,10.0,Calm,Calm,-,N/A,,Scattered Clouds,0,2013-01-18 12:53:00
4:53 AM,-20.9,-27.0,73,30.31,10.0,NE,5.8,-,N/A,,Scattered Clouds,50,2013-01-18 13:53:00
5:53 AM,-24.0,-29.0,77,30.33,10.0,Calm,Calm,-,N/A,,Scattered Clouds,0,2013-01-18 14:53:00
6:53 AM,-27.0,-32.1,77,30.35,10.0,Calm,Calm,-,N/A,,Scattered Clouds,0,2013-01-18 15:53:00
7:53 AM,-27.9,-34.1,73,30.38,10.0,Calm,Calm,-,N/A,,Scattered Clouds,0,2013-01-18 16:53:00
8:53 AM,-29.0,-33.0,81,30.39,10.0,Calm,Calm,-,N/A,,Partly Cloudy,0,2013-01-18 17:53:00
9:53 AM,-29.0,-34.1,77,30.41,10.0,Calm,Calm,-,N/A,,Partly Cloudy,0,2013-01-18 18:53:00
10:53 AM,-27.4,-31.0,83,30.34,10.0,Calm,Calm,-,N/A,,Partly Cloudy,0,2013-01-18 19:53:00
11:53 AM,-27.4,-31.0,83,30.36,10.0,Calm,Calm,-,N/A,,Partly Cloudy,0,2013-01-18 20:53:00
11:56 AM,-27.9,-34.1,73,30.38,10.0,Calm,Calm,-,N/A,,Partly Cloudy,0,2013-01-18 20:56:00
12:53 PM,-27.9,-32.1,81,30.39,10.0,NNE,3.5,-,N/A,,Partly Cloudy,20,2013-01-18 21:53:00
1:53 PM,-23.1,-27.9,78,30.39,10.0,North,3.5,-,N/A,,Partly Cloudy,10,2013-01-18 22:53:00
2:53 PM,-23.1,-27.0,82,30.39,10.0,NNE,4.6,-,N/A,,Partly Cloudy,20,2013-01-18 23:53:00
3:53 PM,-24.0,-27.9,82,30.39,10.0,NNE,5.8,-,N/A,,Partly Cloudy,30,2013-01-19 00:53:00
4:53 PM,-25.1,-29.0,82,30.40,10.0,NE,6.9,-,N/A,,Partly Cloudy,50,2013-01-19 01:53:00
5:53 PM,-26.0,-29.9,81,30.41,10.0,NNE,4.6,-,N/A,,Partly Cloudy,30,2013-01-19 02:53:00
6:53 PM,-25.1,-29.9,78,30.41,10.0,NE,5.8,-,N/A,,Clear,40,2013-01-19 03:53:00
7:53 PM,-26.0,-29.9,81,30.42,10.0,NE,5.8,-,N/A,,Clear,40,2013-01-19 04:53:00
8:53 PM,-22.0,-27.9,74,30.42,10.0,Calm,Calm,-,N/A,,Clear,0,2013-01-19 05:53:00
9:53 PM,-25.1,-29.0,82,30.42,10.0,NE,4.6,-,N/A,,Clear,50,2013-01-19 06:53:00
10:53 PM,-27.9,-34.1,73,30.43,10.0,NNE,3.5,-,N/A,,Clear,30,2013-01-19 07:53:00
11:53 PM,-26.0,-29.9,81,30.50,10.0,NNE,8.1,-,N/A,,Partly Cloudy,30,2013-01-19 08:53:00